This is the latest recevied weather packets stored in our database for station/object WX4BK-13. If no packets are shown the sender has not sent any weather packets the latest 1 day(s).
| Time | Temp. | Humidity | Pressure | Rain* | Wind** | Luminosity | Snow |
|---|---|---|---|---|---|---|---|
| 1778014106 | 25° C | 4% | - | 0 mm | 3.13 m/s, 230° | - | - |
| 1778013926 | 25° C | 4% | - | 0 mm | 2.68 m/s, 185° | - | - |
| 1778013746 | 25° C | 4% | - | 0 mm | 1.79 m/s, 221° | - | - |
| 1778013566 | 25° C | 4% | - | 0 mm | 1.79 m/s, 116° | - | - |
| 1778013386 | 25° C | 4% | - | 0 mm | 1.34 m/s, 249° | - | - |
| 1778013206 | 25° C | 4% | - | 0 mm | 2.24 m/s, 182° | - | - |
| 1778013026 | 25° C | 4% | - | 0 mm | 3.58 m/s, 152° | - | - |
| 1778012846 | 25° C | 4% | - | 0 mm | 1.34 m/s, 187° | - | - |
| 1778012666 | 24.44° C | 4% | - | 0 mm | 2.68 m/s, 249° | - | - |
| 1778012486 | 24.44° C | 4% | - | 0 mm | 3.58 m/s, 186° | - | - |
| 1778012126 | 25° C | 4% | - | 0 mm | 0.45 m/s, 202° | - | - |
| 1778011946 | 25° C | 4% | - | 0 mm | 1.34 m/s, 157° | - | - |
| 1778011766 | 24.44° C | 4% | - | 0 mm | 1.79 m/s, 241° | - | - |
| 1778011586 | 25° C | 4% | - | 0 mm | 0.45 m/s, 135° | - | - |
| 1778011406 | 24.44° C | 4% | - | 0 mm | 0.89 m/s, 180° | - | - |
| 1778011046 | 25° C | 4% | - | 0 mm | 1.34 m/s, 196° | - | - |
| 1778010866 | 25° C | 4% | - | 0 mm | 2.68 m/s, 166° | - | - |
| 1778010506 | 25° C | 4% | - | 0 mm | 0.89 m/s, 194° | - | - |
| 1778010326 | 25° C | 4% | - | 0 mm | 1.79 m/s, 105° | - | - |
| 1778010146 | 25° C | 4% | - | 0 mm | 1.79 m/s, 243° | - | - |
| 1778009966 | 25° C | 4% | - | 0 mm | 0.89 m/s, 225° | - | - |
| 1778009786 | 25° C | 4% | - | 0 mm | 0.89 m/s, 61° | - | - |
| 1778009606 | 24.44° C | 4% | - | 0 mm | 1.34 m/s, 177° | - | - |
| 1778009426 | 24.44° C | 4% | - | 0 mm | 2.24 m/s, 120° | - | - |
| 1778009246 | 25° C | 4% | - | 0 mm | 1.34 m/s, 194° | - | - |
* Rain latest hour (hover to see other rain measurements)
** Current wind speed in m/s (hover to see current wind gust speed)